This is the latest recevied weather packets stored in our database for station/object K1RFS. If no packets are shown the sender has not sent any weather packets the latest 10 day(s).
| Time | Temp. | Humidity | Pressure | Rain* | Wind** | Luminosity | Snow |
|---|---|---|---|---|---|---|---|
| 1778047263 | 11.67° C | 59% | 996.4 hPa | 0 mm | - | 0 W/m² | - |
| 1778046960 | 11.67° C | 59% | 996.4 hPa | 0 mm | - | 0 W/m² | - |
| 1778046657 | 12.22° C | 54% | 996.5 hPa | 0 mm | - | 0 W/m² | - |
| 1778046354 | 11.67° C | 52% | 996.5 hPa | 0 mm | - | 0 W/m² | - |
| 1778046049 | 11.67° C | 55% | 996.2 hPa | 0 mm | - | 0 W/m² | - |
| 1778045748 | 11.11° C | 57% | 996.5 hPa | 0 mm | - | 0 W/m² | - |
| 1778045446 | 10.56° C | 61% | 996 hPa | 0 mm | - | 0 W/m² | - |
| 1778045144 | 10° C | 62% | 996 hPa | 0 mm | - | 0 W/m² | - |
| 1778044841 | 9.44° C | 63% | 995.8 hPa | 0 mm | - | 0 W/m² | - |
| 1778044538 | 9.44° C | 64% | 995.8 hPa | 0 mm | - | 0 W/m² | - |
| 1778044235 | 9.44° C | 63% | 996 hPa | 0 mm | - | 0 W/m² | - |
| 1778043933 | 9.44° C | 62% | 996 hPa | 0 mm | - | 0 W/m² | - |
| 1778043630 | 9.44° C | 62% | 995.7 hPa | 0 mm | - | 0 W/m² | - |
| 1778043326 | 9.44° C | 61% | 995.6 hPa | 0 mm | - | 0 W/m² | - |
| 1778043023 | 9.44° C | 60% | 995.6 hPa | 0 mm | - | 0 W/m² | - |
| 1778042721 | 9.44° C | 60% | 995.7 hPa | 0 mm | - | 0 W/m² | - |
| 1778042418 | 10° C | 59% | 995.6 hPa | 0 mm | - | 0 W/m² | - |
| 1778042115 | 10° C | 60% | 995.4 hPa | 0 mm | - | 0 W/m² | - |
| 1778041813 | 10° C | 60% | 995.7 hPa | 0 mm | - | 0 W/m² | - |
| 1778041512 | 10° C | 60% | 995.4 hPa | 0 mm | - | 0 W/m² | - |
| 1778041210 | 10° C | 60% | 995.7 hPa | 0 mm | - | 0 W/m² | - |
| 1778040908 | 10° C | 61% | 995.4 hPa | 0 mm | - | 0 W/m² | - |
| 1778040605 | 10° C | 60% | 995.4 hPa | 0 mm | - | 0 W/m² | - |
| 1778040302 | 10° C | 60% | 995.4 hPa | 0 mm | - | 0 W/m² | - |
| 1778039998 | 10° C | 60% | 995.7 hPa | 0 mm | - | 0 W/m² | - |
* Rain latest hour (hover to see other rain measurements)
** Current wind speed in m/s (hover to see current wind gust speed)